User: anonymous   Login
Location: Владивосток
(43.1151°N, 131.8856°E)
Time: 08:28:43
(UTC+10:00)
Language:

AO-109 - Orbit

View from above orbital plane
View from above orbital plane
View from above satellite
View from above satellite

Ground track
Ground track

The orbit data is extracted from the following two-line orbital elements,

1 47311U 21002C   24109.49933394  .01652240  21503-2  15702-2 0  9991
2 47311  60.6544 289.9569 0001929 309.3409  50.7549 16.11996073181968
Epoch (UTC): 18 April 2024 11:59:02
Eccentricity: 0.0001929
inclination: 60.6544°
perigee height: 240 km
apogee height: 242 km
right ascension of ascending node: 289.9569°
argument of perigee: 309.3409°
revolutions per day: 16.11996073
mean anomaly at epoch: 50.7549°
orbit number at epoch: 18196

The dashed part of the orbit path shows where the satellite is in the earth's shadow,  

DLR